Showing default

KUIPER-00097, 65136

Orbit data source: Space-Track

KUIPER-00097, 65136 is a payload satellite owned by Kuiper Systems (US) in LEO that was launched on Mon, 11 Aug 2025 UTC via an FALCON 9 launch vehicle from the Air Force Eastern Test Range (AFETR). Payload-class satellites include a variety of spacecraft equipped with specific instruments for various scientific and technological missions. These include communications satellites like Starlink; space stations such as the ISS; scientific satellites like the Hubble; Earth observation satellites from companies like Planet Labs, Umbra, and HawkEye 360; GPS; miniature CubeSats for education and research; and military/defense satellites.

Loading next visibility...
Identifier
65136, 2025-171E
Orbit
LEO
Country
Flag of USUS
Related business
Manufacturer
Kuiper Systems
Mission
Operational Commercial Communications
Bus & Motor
KUIPER, Unknown motor
Mass
~490 kg wet, ~490 kg dry
Launch date (UTC)
2025-08-11 (10 months ago)
Launch vehicle
FALCON 9
Launch site
Air Force Eastern Test Range (AFETR)
Object type
Payload
Rocket body
Debris
Shape & HBR
Box + 2 Pan, 3.4 m
Radar Cross Section
2.326 m², Large (>1 m²)

Expand to show TLE details & history
Last TLE update: 1 day ago

TLE from 1 day ago
0 KUIPER-00097
1 65136U 25171E   26170.91490725 -.00000275  00000-0 -70789-5 0  9992
2 65136  51.9010  68.6851 0000917  99.0222 261.0844 14.79931122 47986
Epoch: 2026-06-19T21:57Z
TLE epoch observation values (Epoch: 2026-06-19T21:57:27.986Z)
Latitude
-0.00003°
Longitude
-168.81857°
Altitude
630.388 km
Speed
7.544 km/s
True Right ascension
04h 34m 44s
True Declination
0° 00' 00"
Sunlit
Object was in daylight at epoch
Visualization orbit readout
Latitude
Unknown
Longitude
Unknown
Altitude
Unknown
Speed
Unknown
Apparent Right ascension
Unknown
Apparent Declination
Unknown
Sunlit
N/A
Visualization observer readout
Local Sidereal Time
08:32:59
Azimuth
Unknown
Elevation
Unknown
Doppler factor
Unknown
Orbital elements
Apogee altitude
630.635 km
Perigee altitude
629.35 km
Semi-major axis
7,008.13 km
Eccentricity
0.00009
Inclination
51.901°
RAAN
68.6851°
Arg. of periapsis
99.0222°
True anomaly
261.07402°
Mean anomaly
261.0844°
Eccentric anomaly
261.07921°
Mean motion
3.69947 °/min
Orbital period
97.31 mins
BSTAR
-0.0000070789
Loading maneuver chart data...
Computing Atmospheric mass density...
Loading historical data...
Loading historical data...
Loading historical data...
Loading historical data...
Loading historical data...
Loading historical data...
Loading historical data...

Documentation

Showing up to 5 results
|